This is the latest recevied weather packets stored in our database for station/object N0QV. If no packets are shown the sender has not sent any weather packets the latest 10 day(s).
| Time | Temp. | Humidity | Pressure | Rain* | Wind** | Luminosity | Snow |
|---|---|---|---|---|---|---|---|
| 1788637729 | 26.67° C | 81% | 1015.2 hPa | 0 mm | - | 283 W/m² | - |
| 1788637428 | 26.67° C | 81% | 1015.4 hPa | 0 mm | - | 301 W/m² | - |
| 1788637128 | 26.67° C | 81% | 1015.5 hPa | 0 mm | - | 337 W/m² | - |
| 1788636822 | 26.67° C | 82% | 1015.5 hPa | 0 mm | - | 385 W/m² | - |
| 1788636518 | 26.67° C | 82% | 1015.5 hPa | 0 mm | - | 383 W/m² | - |
| 1788636214 | 26.11° C | 83% | 1015.3 hPa | 0 mm | - | 336 W/m² | - |
| 1788635913 | 25.56° C | 83% | 1015.8 hPa | 0 mm | - | 283 W/m² | - |
| 1788635612 | 25.56° C | 84% | 1015.5 hPa | 0 mm | - | 196 W/m² | - |
| 1788635311 | 25.56° C | 83% | 1015.8 hPa | 0 mm | - | 147 W/m² | - |
| 1788635011 | 25.56° C | 83% | 1015.6 hPa | 0 mm | - | 121 W/m² | - |
| 1788634710 | 25.56° C | 83% | 1015.5 hPa | 0 mm | - | 123 W/m² | - |
| 1788634405 | 25.56° C | 84% | 1015.4 hPa | 0 mm | - | 121 W/m² | - |
| 1788634104 | 25.56° C | 84% | 1015.8 hPa | 0 mm | - | 113 W/m² | - |
| 1788633804 | 25.56° C | 83% | 1015.7 hPa | 0 mm | - | 114 W/m² | - |
| 1788633502 | 25.56° C | 83% | 1015.8 hPa | 0 mm | - | 112 W/m² | - |
| 1788633198 | 25.56° C | 82% | 1015.6 hPa | 0 mm | - | 113 W/m² | - |
| 1788632898 | 25.56° C | 81% | 1015.7 hPa | 0 mm | - | 121 W/m² | - |
| 1788632597 | 26.11° C | 82% | 1016 hPa | 0 mm | - | 131 W/m² | - |
| 1788632293 | 25.56° C | 82% | 1016 hPa | 0 mm | - | 185 W/m² | - |
| 1788631992 | 26.11° C | 81% | 1016.3 hPa | 0 mm | - | 226 W/m² | - |
| 1788631692 | 26.11° C | 82% | 1016.6 hPa | 0 mm | - | 247 W/m² | - |
| 1788631387 | 26.67° C | 80% | 1016.8 hPa | 0 mm | - | 265 W/m² | - |
| 1788631082 | 26.67° C | 78% | 1016.3 hPa | 0 mm | - | 519 W/m² | - |
| 1788630776 | 26.11° C | 81% | 1016.4 hPa | 0 mm | - | 562 W/m² | - |
| 1788630472 | 25.56° C | 82% | 1016.5 hPa | 0 mm | - | 329 W/m² | - |
* Rain latest hour (hover to see other rain measurements)
** Current wind speed in m/s (hover to see current wind gust speed)